Date String (YYYY-MM-DD hh:mm:ss) UTC,Instrument flags,Ambient pressure (hPa),Sample flow (lpm),Bypass flow (lpm),Sample temperature (°C),Ambient temperature (°C),ASC tube jacket temperature (°C),LED temperature (°C),Box temperature (°C),Sample RH (%),Span deviation,Mass concentration (μg/m³),Mass concentration (μg/m³),Mass concentration (μg/m³)
DateTimeUTC,F1_M11,P_M11,Q1_M11,Q2_M11,T1_M11,T2_M11,T3_M11,T4_M11,T5_M11,U1_M11,ZSPAN_M11,X0_M11,X2_M11,X1_M11
2022-06-29 05:00:00,,0829.5,4.99,0.00,29.2,27.9,00.0,37.9,31.1,16.1,0000.0,0008.93,0004.20,0003.76
2022-06-29 05:01:00,,0829.5,5.00,0.00,29.2,28.1,00.0,37.9,31.2,16.0,0000.0,0009.07,0004.23,0003.76
2022-06-29 05:02:00,,0829.5,5.01,0.00,29.2,28.2,00.0,38.0,31.2,16.0,0000.0,0008.94,0004.26,0003.75
2022-06-29 05:03:00,,0829.5,5.00,0.00,29.3,28.3,00.0,38.0,31.2,16.0,0000.0,0008.29,0004.29,0003.75
2022-06-29 05:04:00,,0829.5,4.99,0.00,29.3,28.4,00.0,38.0,31.3,16.0,0000.0,0008.59,0004.30,0003.73
2022-06-29 05:05:00,,0829.5,5.00,0.00,29.3,28.5,00.0,38.0,31.3,15.9,0000.0,0008.89,0004.30,0003.72
2022-06-29 05:06:00,,0829.5,5.01,0.00,29.4,28.5,00.0,38.0,31.4,15.9,0000.0,0009.47,0004.32,0003.71
2022-06-29 05:07:00,,0829.5,5.00,0.00,29.4,28.2,00.0,38.0,31.3,15.9,0000.0,0009.62,0004.33,0003.70
2022-06-29 05:08:00,,0829.5,5.00,0.00,29.3,27.5,00.0,38.0,31.1,15.9,0000.0,0009.40,0004.27,0003.69
2022-06-29 05:09:00,,0829.5,4.99,0.00,29.3,27.4,00.0,38.0,31.1,15.9,0000.0,0009.51,0004.26,0003.67
2022-06-29 05:10:00,,0829.5,5.00,0.00,29.3,27.4,00.0,38.0,31.0,16.0,0000.0,0009.48,0004.25,0003.66
2022-06-29 05:11:00,,0829.5,5.00,0.00,29.2,27.5,00.0,38.0,31.1,16.0,0000.0,0009.26,0004.22,0003.64
2022-06-29 05:12:00,,0829.5,5.01,0.00,29.2,27.6,00.0,38.0,31.1,16.1,0000.0,0008.87,0004.19,0003.61
2022-06-29 05:13:00,,0829.4,5.00,0.00,29.2,27.8,00.0,38.0,31.1,16.1,0000.0,0008.75,0004.14,0003.60
2022-06-29 05:14:00,,0829.4,5.00,0.00,29.3,27.9,00.0,38.0,31.2,16.1,0000.0,0008.97,0004.10,0003.58
2022-06-29 05:15:00,,0829.5,5.00,0.00,29.3,28.0,00.0,38.0,31.2,16.1,0000.0,0009.02,0004.07,0003.58
2022-06-29 05:16:00,,0829.5,5.00,0.00,29.3,28.2,00.0,38.0,31.3,16.0,0000.0,0008.58,0004.03,0003.56
2022-06-29 05:17:00,,0829.5,4.99,0.00,29.3,28.3,00.0,38.0,31.3,16.0,0000.0,0009.00,0004.00,0003.54
2022-06-29 05:18:00,,0829.5,5.01,0.00,29.4,28.4,00.0,38.1,31.3,15.9,0000.0,0009.45,0003.97,0003.54
2022-06-29 05:19:00,,0829.5,5.01,0.00,29.4,28.5,00.0,38.1,31.4,15.9,0000.0,0009.37,0003.97,0003.53
2022-06-29 05:20:00,,0829.5,5.00,0.00,29.4,28.4,00.0,38.1,31.4,15.9,0000.0,0009.35,0003.98,0003.53
2022-06-29 05:21:00,,0829.5,5.00,0.00,29.4,27.5,00.0,38.0,31.1,15.9,0000.0,0009.48,0003.97,0003.51
2022-06-29 05:22:00,,0829.4,5.00,0.00,29.3,26.8,00.0,38.0,30.9,15.9,0000.0,0009.49,0003.96,0003.51
2022-06-29 05:23:00,,0829.5,5.00,0.00,29.2,26.7,00.0,38.0,30.9,15.9,0000.0,0009.40,0003.94,0003.51
2022-06-29 05:24:00,,0829.5,5.00,0.00,29.1,26.8,00.0,38.0,30.8,16.0,0000.0,0009.36,0003.93,0003.51
2022-06-29 05:25:00,,0829.5,4.99,0.00,29.1,26.9,00.0,37.9,30.9,16.0,0000.0,0009.07,0003.91,0003.50
2022-06-29 05:26:00,,0829.5,4.99,0.00,29.1,27.1,00.0,37.9,30.9,16.0,0000.0,0008.70,0003.92,0003.50
2022-06-29 05:27:00,,0829.4,5.01,0.00,29.1,27.3,00.0,37.9,30.9,16.0,0000.0,0008.83,0003.93,0003.49
2022-06-29 05:28:00,,0829.5,4.99,0.00,29.1,27.5,00.0,37.9,31.0,16.0,0000.0,0008.18,0003.93,0003.49
2022-06-29 05:29:00,,0829.5,5.00,0.00,29.1,27.7,00.0,37.9,31.0,16.0,0000.0,0007.16,0003.94,0003.48
2022-06-29 05:30:00,,0829.5,5.00,0.00,29.1,27.8,00.0,37.9,31.1,16.0,0000.0,0007.32,0003.96,0003.48
2022-06-29 05:31:00,,0829.5,4.99,0.00,29.2,28.0,00.0,37.9,31.1,16.0,0000.0,0007.44,0003.95,0003.48
2022-06-29 05:32:00,,0829.5,5.00,0.00,29.2,28.1,00.0,37.9,31.1,16.1,0000.0,0007.21,0003.94,0003.48
2022-06-29 05:33:00,,0829.5,5.01,0.00,29.2,28.2,00.0,38.0,31.2,16.1,0000.0,0007.33,0003.96,0003.49
2022-06-29 05:34:00,,0829.5,5.00,0.00,29.3,28.3,00.0,38.0,31.2,16.1,0000.0,0007.34,0003.96,0003.48
2022-06-29 05:35:00,,0829.5,5.00,0.00,29.3,28.4,00.0,38.0,31.3,16.2,0000.0,0007.47,0003.98,0003.49
2022-06-29 05:36:00,,0829.5,5.01,0.00,29.3,28.4,00.0,38.0,31.3,16.2,0000.0,0007.56,0003.99,0003.50
2022-06-29 05:37:00,,0829.5,4.99,0.00,29.4,28.5,00.0,38.0,31.3,16.1,0000.0,0007.74,0004.00,0003.51
2022-06-29 05:38:00,,0829.5,5.00,0.00,29.4,28.4,00.0,38.1,31.3,16.1,0000.0,0007.72,0003.99,0003.51
2022-06-29 05:39:00,,0829.4,5.01,0.00,29.4,27.7,00.0,38.0,31.2,16.1,0000.0,0007.68,0003.96,0003.52
2022-06-29 05:40:00,,0829.3,5.01,0.00,29.3,27.3,00.0,38.0,31.1,16.1,0000.0,0007.65,0003.95,0003.52
2022-06-29 05:41:00,,0829.3,5.01,0.00,29.3,27.3,00.0,38.0,31.0,16.2,0000.0,0007.50,0003.94,0003.53
2022-06-29 05:42:00,,0829.3,5.00,0.00,29.2,27.3,00.0,38.0,31.0,16.2,0000.0,0007.45,0003.96,0003.53
2022-06-29 05:43:00,,0829.3,4.99,0.00,29.2,27.5,00.0,38.0,31.0,16.2,0000.0,0007.65,0003.99,0003.53
2022-06-29 05:44:00,,0829.2,5.00,0.00,29.2,27.6,00.0,38.0,31.1,16.1,0000.0,0008.43,0004.02,0003.53
2022-06-29 05:45:00,,0829.2,5.00,0.00,29.2,27.8,00.0,38.0,31.1,16.1,0000.0,0008.85,0004.03,0003.54
2022-06-29 05:46:00,,0829.2,5.00,0.00,29.2,27.9,00.0,38.0,31.1,16.0,0000.0,0008.77,0004.04,0003.54
2022-06-29 05:47:00,,0829.3,5.00,0.00,29.3,28.0,00.0,38.0,31.2,16.0,0000.0,0008.74,0004.05,0003.54
2022-06-29 05:48:00,,0829.2,4.98,0.00,29.3,28.1,00.0,38.0,31.2,16.0,0000.0,0008.53,0004.03,0003.54
2022-06-29 05:49:00,,0829.2,5.01,0.00,29.3,28.2,00.0,38.0,31.3,15.9,0000.0,0008.57,0004.09,0003.55
2022-06-29 05:50:00,,0829.3,5.00,0.00,29.3,28.3,00.0,38.0,31.3,15.7,0000.0,0008.61,0004.13,0003.56
2022-06-29 05:51:00,,0829.3,4.99,0.00,29.4,28.4,00.0,38.1,31.3,15.5,0000.0,0008.56,0004.10,0003.55
2022-06-29 05:52:00,,0829.3,5.00,0.00,29.4,28.5,00.0,38.1,31.4,15.3,0000.0,0009.14,0004.08,0003.55
2022-06-29 05:53:00,,0829.3,5.00,0.00,29.4,28.6,00.0,38.1,31.4,15.3,0000.0,0009.11,0004.05,0003.55
2022-06-29 05:54:00,,0829.3,5.01,0.00,29.5,28.5,00.0,38.1,31.4,15.1,0000.0,0008.90,0004.02,0003.55
2022-06-29 05:55:00,,0829.2,5.00,0.00,29.4,27.8,00.0,38.1,31.2,15.2,0000.0,0008.73,0003.99,0003.54
2022-06-29 05:56:00,,0829.2,5.00,0.00,29.4,27.4,00.0,38.1,31.1,15.3,0000.0,0008.50,0003.98,0003.54
2022-06-29 05:57:00,,0829.2,5.00,0.00,29.3,27.3,00.0,38.1,31.1,15.3,0000.0,0008.70,0003.95,0003.53
2022-06-29 05:58:00,,0829.2,4.99,0.00,29.3,27.4,00.0,38.1,31.1,15.4,0000.0,0008.75,0003.95,0003.53
2022-06-29 05:59:00,,0829.2,5.00,0.00,29.3,27.5,00.0,38.1,31.1,15.4,0000.0,0008.74,0003.94,0003.52
